Year,Month,Day,Hour,Minute,Value (Times are PST for barometer in hPa)
2016,03,06,00,00,981.75
2016,03,06,00,01,981.75
2016,03,06,00,02,981.75
2016,03,06,00,03,981.75
2016,03,06,00,04,981.75
2016,03,06,00,05,981.75
2016,03,06,00,06,981.75
2016,03,06,00,07,981.75
2016,03,06,00,08,981.75
2016,03,06,00,09,981.75
2016,03,06,00,10,981.75
2016,03,06,00,11,981.75
2016,03,06,00,12,981.75
2016,03,06,00,13,981.75
2016,03,06,00,14,981.75
2016,03,06,00,15,981.71
2016,03,06,00,16,981.71
2016,03,06,00,17,981.71
2016,03,06,00,18,981.71
2016,03,06,00,19,981.71
2016,03,06,00,20,981.71
2016,03,06,00,21,981.71
2016,03,06,00,22,981.71
2016,03,06,00,23,981.71
2016,03,06,00,24,981.71
2016,03,06,00,25,981.71
2016,03,06,00,26,981.71
2016,03,06,00,27,981.71
2016,03,06,00,28,981.71
2016,03,06,00,29,981.71
2016,03,06,00,30,981.61
2016,03,06,00,31,981.61
2016,03,06,00,32,981.61
2016,03,06,00,33,981.61
2016,03,06,00,34,981.61
2016,03,06,00,35,981.61
2016,03,06,00,36,981.61
2016,03,06,00,37,981.61
2016,03,06,00,38,981.61
2016,03,06,00,39,981.61
2016,03,06,00,40,981.61
2016,03,06,00,41,981.61
2016,03,06,00,42,981.61
2016,03,06,00,43,981.61
2016,03,06,00,44,981.61
2016,03,06,00,45,981.71
2016,03,06,00,46,981.71
2016,03,06,00,47,981.71
2016,03,06,00,48,981.71
2016,03,06,00,49,981.71
2016,03,06,00,50,981.71
2016,03,06,00,51,981.71
2016,03,06,00,52,981.71
2016,03,06,00,53,981.71
2016,03,06,00,54,981.71
2016,03,06,00,55,981.71
2016,03,06,00,56,981.71
2016,03,06,00,57,981.71
2016,03,06,00,58,981.71
2016,03,06,00,59,981.71
2016,03,06,01,00,981.85
2016,03,06,01,01,981.85
2016,03,06,01,02,981.85
2016,03,06,01,03,981.85
2016,03,06,01,04,981.85
2016,03,06,01,05,981.85
2016,03,06,01,06,981.85
2016,03,06,01,07,981.85
2016,03,06,01,08,981.85
2016,03,06,01,09,981.85
2016,03,06,01,10,981.85
2016,03,06,01,11,981.85
2016,03,06,01,12,981.85
2016,03,06,01,13,981.85
2016,03,06,01,14,981.85
2016,03,06,01,15,981.34
2016,03,06,01,16,981.34
2016,03,06,01,17,981.34
2016,03,06,01,18,981.34
2016,03,06,01,19,981.34
2016,03,06,01,20,981.34
2016,03,06,01,21,981.34
2016,03,06,01,22,981.34
2016,03,06,01,23,981.34
2016,03,06,01,24,981.34
2016,03,06,01,25,981.34
2016,03,06,01,26,981.34
2016,03,06,01,27,981.34
2016,03,06,01,28,981.34
2016,03,06,01,29,981.34
2016,03,06,01,30,981.65
2016,03,06,01,31,981.65
2016,03,06,01,32,981.65
2016,03,06,01,33,981.65
2016,03,06,01,34,981.65
2016,03,06,01,35,981.65
2016,03,06,01,36,981.65
2016,03,06,01,37,981.65
2016,03,06,01,38,981.65
2016,03,06,01,39,981.65
2016,03,06,01,40,981.65
2016,03,06,01,41,981.65
2016,03,06,01,42,981.65
2016,03,06,01,43,981.65
2016,03,06,01,44,981.65
2016,03,06,01,45,983.00
2016,03,06,01,46,983.00
2016,03,06,01,47,983.00
2016,03,06,01,48,983.00
2016,03,06,01,49,983.00
2016,03,06,01,50,983.00
2016,03,06,01,51,983.00
2016,03,06,01,52,983.00
2016,03,06,01,53,983.00
2016,03,06,01,54,983.00
2016,03,06,01,55,983.00
2016,03,06,01,56,983.00
2016,03,06,01,57,983.00
2016,03,06,01,58,983.00
2016,03,06,01,59,983.00
2016,03,06,02,00,983.92
2016,03,06,02,01,983.92
2016,03,06,02,02,983.92
2016,03,06,02,03,983.92
2016,03,06,02,04,983.92
2016,03,06,02,05,983.92
2016,03,06,02,06,983.92
2016,03,06,02,07,983.92
2016,03,06,02,08,983.92
2016,03,06,02,09,983.92
2016,03,06,02,10,983.92
2016,03,06,02,11,983.92
2016,03,06,02,12,983.92
2016,03,06,02,13,983.92
2016,03,06,02,14,983.92
2016,03,06,02,15,983.85
2016,03,06,02,16,983.85
2016,03,06,02,17,983.85
2016,03,06,02,18,983.85
2016,03,06,02,19,983.85
2016,03,06,02,20,983.85
2016,03,06,02,21,983.85
2016,03,06,02,22,983.85
2016,03,06,02,23,983.85
2016,03,06,02,24,983.85
2016,03,06,02,25,983.85
2016,03,06,02,26,983.85
2016,03,06,02,27,983.85
2016,03,06,02,28,983.85
2016,03,06,02,29,983.85
2016,03,06,02,30,983.85
2016,03,06,02,31,983.85
2016,03,06,02,32,983.85
2016,03,06,02,33,983.85
2016,03,06,02,34,983.85
2016,03,06,02,35,983.85
2016,03,06,02,36,983.85
2016,03,06,02,37,983.85
2016,03,06,02,38,983.85
2016,03,06,02,39,983.85
2016,03,06,02,40,983.85
2016,03,06,02,41,983.85
2016,03,06,02,42,983.85
2016,03,06,02,43,983.85
2016,03,06,02,44,983.85
2016,03,06,02,45,983.85
2016,03,06,02,46,983.85
2016,03,06,02,47,983.85
2016,03,06,02,48,983.85
2016,03,06,02,49,983.85
2016,03,06,02,50,983.85
2016,03,06,02,51,983.85
2016,03,06,02,52,983.85
2016,03,06,02,53,983.85
2016,03,06,02,54,983.85
2016,03,06,02,55,983.85
2016,03,06,02,56,983.85
2016,03,06,02,57,983.85
2016,03,06,02,58,983.85
2016,03,06,02,59,983.85
2016,03,06,03,00,983.78
2016,03,06,03,01,983.78
2016,03,06,03,02,983.78
2016,03,06,03,03,983.78
2016,03,06,03,04,983.78
2016,03,06,03,05,983.78
2016,03,06,03,06,983.78
2016,03,06,03,07,983.78
2016,03,06,03,08,983.78
2016,03,06,03,09,983.78
2016,03,06,03,10,983.78
2016,03,06,03,11,983.78
2016,03,06,03,12,983.78
2016,03,06,03,13,983.78
2016,03,06,03,14,983.78
2016,03,06,03,15,984.27
2016,03,06,03,16,984.29
2016,03,06,03,17,984.29
2016,03,06,03,18,984.29
2016,03,06,03,19,984.29
2016,03,06,03,20,984.29
2016,03,06,03,21,984.29
2016,03,06,03,22,984.29
2016,03,06,03,23,984.29
2016,03,06,03,24,984.29
2016,03,06,03,25,984.29
2016,03,06,03,26,984.29
2016,03,06,03,27,984.29
2016,03,06,03,28,984.29
2016,03,06,03,29,984.29
2016,03,06,03,30,984.36
2016,03,06,03,31,984.36
2016,03,06,03,32,984.36
2016,03,06,03,33,984.36
2016,03,06,03,34,984.36
2016,03,06,03,35,984.36
2016,03,06,03,36,984.36
2016,03,06,03,37,984.36
2016,03,06,03,38,984.36
2016,03,06,03,39,984.36
2016,03,06,03,40,984.36
2016,03,06,03,41,984.36
2016,03,06,03,42,984.36
2016,03,06,03,43,984.36
2016,03,06,03,44,984.36
2016,03,06,03,45,985.13
2016,03,06,03,46,985.13
2016,03,06,03,47,985.13
2016,03,06,03,48,985.13
2016,03,06,03,49,985.13
2016,03,06,03,50,985.13
2016,03,06,03,51,985.13
2016,03,06,03,52,985.13
2016,03,06,03,53,985.13
2016,03,06,03,54,985.13
2016,03,06,03,55,985.13
2016,03,06,03,56,985.13
2016,03,06,03,57,985.13
2016,03,06,03,58,985.13
2016,03,06,03,59,985.13
2016,03,06,04,00,985.34
2016,03,06,04,01,985.34
2016,03,06,04,02,985.34
2016,03,06,04,03,985.34
2016,03,06,04,04,985.34
2016,03,06,04,05,985.34
2016,03,06,04,06,985.34
2016,03,06,04,07,985.34
2016,03,06,04,08,985.34
2016,03,06,04,09,985.34
2016,03,06,04,10,985.34
2016,03,06,04,11,985.34
2016,03,06,04,12,985.34
2016,03,06,04,13,985.34
2016,03,06,04,14,985.34
2016,03,06,04,15,986.08
2016,03,06,04,16,986.08
2016,03,06,04,17,986.08
2016,03,06,04,18,986.08
2016,03,06,04,19,986.08
2016,03,06,04,20,986.08
2016,03,06,04,21,986.08
2016,03,06,04,22,986.08
2016,03,06,04,23,986.08
2016,03,06,04,24,986.08
2016,03,06,04,25,986.08
2016,03,06,04,26,986.08
2016,03,06,04,27,986.08
2016,03,06,04,28,986.08
2016,03,06,04,29,986.08
2016,03,06,04,30,986.83
2016,03,06,04,31,986.83
2016,03,06,04,32,986.83
2016,03,06,04,33,986.83
2016,03,06,04,34,986.83
2016,03,06,04,35,986.83
2016,03,06,04,36,986.83
2016,03,06,04,37,986.83
2016,03,06,04,38,986.83
2016,03,06,04,39,986.83
2016,03,06,04,40,986.83
2016,03,06,04,41,986.83
2016,03,06,04,42,986.83
2016,03,06,04,43,986.83
2016,03,06,04,44,986.83
2016,03,06,04,45,986.86
2016,03,06,04,46,986.86
2016,03,06,04,47,986.86
2016,03,06,04,48,986.86
2016,03,06,04,49,986.86
2016,03,06,04,50,986.86
2016,03,06,04,51,986.86
2016,03,06,04,52,986.86
2016,03,06,04,53,986.86
2016,03,06,04,54,986.86
2016,03,06,04,55,986.86
2016,03,06,04,56,986.86
2016,03,06,04,57,986.86
2016,03,06,04,58,986.86
2016,03,06,04,59,986.86
2016,03,06,05,00,987.00
2016,03,06,05,01,987.00
2016,03,06,05,02,987.00
2016,03,06,05,03,987.00
2016,03,06,05,04,987.00
2016,03,06,05,05,987.00
2016,03,06,05,06,987.00
2016,03,06,05,07,987.00
2016,03,06,05,08,987.00
2016,03,06,05,09,987.00
2016,03,06,05,10,987.00
2016,03,06,05,11,987.00
2016,03,06,05,12,987.00
2016,03,06,05,13,987.00
2016,03,06,05,14,987.00
2016,03,06,05,15,987.61
2016,03,06,05,16,987.64
2016,03,06,05,17,987.64
2016,03,06,05,18,987.64
2016,03,06,05,19,987.64
2016,03,06,05,20,987.64
2016,03,06,05,21,987.64
2016,03,06,05,22,987.64
2016,03,06,05,23,987.64
2016,03,06,05,24,987.64
2016,03,06,05,25,987.64
2016,03,06,05,26,987.64
2016,03,06,05,27,987.64
2016,03,06,05,28,987.64
2016,03,06,05,29,987.64
2016,03,06,05,30,988.29
2016,03,06,05,31,988.32
2016,03,06,05,32,988.32
2016,03,06,05,33,988.32
2016,03,06,05,34,988.32
2016,03,06,05,35,988.32
2016,03,06,05,36,988.32
2016,03,06,05,37,988.32
2016,03,06,05,38,988.32
2016,03,06,05,39,988.32
2016,03,06,05,40,988.32
2016,03,06,05,41,988.32
2016,03,06,05,42,988.32
2016,03,06,05,43,988.32
2016,03,06,05,44,988.32
2016,03,06,05,45,988.96
2016,03,06,05,46,988.96
2016,03,06,05,47,988.96
2016,03,06,05,48,988.96
2016,03,06,05,49,988.96
2016,03,06,05,50,988.96
2016,03,06,05,51,988.96
2016,03,06,05,52,988.96
2016,03,06,05,53,988.96
2016,03,06,05,54,988.96
2016,03,06,05,55,988.96
2016,03,06,05,56,988.96
2016,03,06,05,57,988.96
2016,03,06,05,58,988.96
2016,03,06,05,59,988.96
2016,03,06,06,00,989.26
2016,03,06,06,01,989.27
2016,03,06,06,02,989.27
2016,03,06,06,03,989.27
2016,03,06,06,04,989.27
2016,03,06,06,05,989.27
2016,03,06,06,06,989.27
2016,03,06,06,07,989.27
2016,03,06,06,08,989.27
2016,03,06,06,09,989.27
2016,03,06,06,10,989.27
2016,03,06,06,11,989.27
2016,03,06,06,12,989.27
2016,03,06,06,13,989.27
2016,03,06,06,14,989.27
2016,03,06,06,15,989.43
2016,03,06,06,16,989.44
2016,03,06,06,17,989.44
2016,03,06,06,18,989.44
2016,03,06,06,19,989.44
2016,03,06,06,20,989.44
2016,03,06,06,21,989.44
2016,03,06,06,22,989.44
2016,03,06,06,23,989.44
2016,03,06,06,24,989.44
2016,03,06,06,25,989.44
2016,03,06,06,26,989.44
2016,03,06,06,27,989.44
2016,03,06,06,28,989.44
2016,03,06,06,29,989.44
2016,03,06,06,30,989.60
2016,03,06,06,31,989.60
2016,03,06,06,32,989.60
2016,03,06,06,33,989.60
2016,03,06,06,34,989.60
2016,03,06,06,35,989.60
2016,03,06,06,36,989.60
2016,03,06,06,37,989.60
2016,03,06,06,38,989.60
2016,03,06,06,39,989.60
2016,03,06,06,40,989.60
2016,03,06,06,41,989.60
2016,03,06,06,42,989.60
2016,03,06,06,43,989.60
2016,03,06,06,44,989.60
2016,03,06,06,45,990.01
2016,03,06,06,46,990.01
2016,03,06,06,47,990.01
2016,03,06,06,48,990.01
2016,03,06,06,49,990.01
2016,03,06,06,50,990.01
2016,03,06,06,51,990.01
2016,03,06,06,52,990.01
2016,03,06,06,53,990.01
2016,03,06,06,54,990.01
2016,03,06,06,55,990.01
2016,03,06,06,56,990.01
2016,03,06,06,57,990.01
2016,03,06,06,58,990.01
2016,03,06,06,59,990.01
2016,03,06,07,00,990.55
2016,03,06,07,01,990.55
2016,03,06,07,02,990.55
2016,03,06,07,03,990.55
2016,03,06,07,04,990.55
2016,03,06,07,05,990.55
2016,03,06,07,06,990.55
2016,03,06,07,07,990.55
2016,03,06,07,08,990.55
2016,03,06,07,09,990.55
2016,03,06,07,10,990.55
2016,03,06,07,11,990.55
2016,03,06,07,12,990.55
2016,03,06,07,13,990.55
2016,03,06,07,14,990.55
2016,03,06,07,15,990.59
2016,03,06,07,16,990.59
2016,03,06,07,17,990.59
2016,03,06,07,18,990.59
2016,03,06,07,19,990.59
2016,03,06,07,20,990.59
2016,03,06,07,21,990.59
2016,03,06,07,22,990.59
2016,03,06,07,23,990.59
2016,03,06,07,24,990.59
2016,03,06,07,25,990.59
2016,03,06,07,26,990.59
2016,03,06,07,27,990.59
2016,03,06,07,28,990.59
2016,03,06,07,29,990.59
2016,03,06,07,30,990.59
2016,03,06,07,31,990.59
2016,03,06,07,32,990.59
2016,03,06,07,33,990.59
2016,03,06,07,34,990.59
2016,03,06,07,35,990.59
2016,03,06,07,36,990.59
2016,03,06,07,37,990.59
2016,03,06,07,38,990.59
2016,03,06,07,39,990.59
2016,03,06,07,40,990.59
2016,03,06,07,41,990.59
2016,03,06,07,42,990.59
2016,03,06,07,43,990.59
2016,03,06,07,44,990.59
2016,03,06,07,45,991.13
2016,03,06,07,46,991.16
2016,03,06,07,47,991.16
2016,03,06,07,48,991.16
2016,03,06,07,49,991.16
2016,03,06,07,50,991.16
2016,03,06,07,51,991.16
2016,03,06,07,52,991.16
2016,03,06,07,53,991.16
2016,03,06,07,54,991.16
2016,03,06,07,55,991.16
2016,03,06,07,56,991.16
2016,03,06,07,57,991.16
2016,03,06,07,58,991.16
2016,03,06,07,59,991.16
2016,03,06,08,00,992.08
2016,03,06,08,01,992.08
2016,03,06,08,02,992.08
2016,03,06,08,03,992.08
2016,03,06,08,04,992.08
2016,03,06,08,05,992.08
2016,03,06,08,06,992.08
2016,03,06,08,07,992.08
2016,03,06,08,08,992.08
2016,03,06,08,09,992.08
2016,03,06,08,10,992.08
2016,03,06,08,11,992.08
2016,03,06,08,12,992.08
2016,03,06,08,13,992.08
2016,03,06,08,14,992.08
2016,03,06,08,15,991.21
2016,03,06,08,16,991.16
2016,03,06,08,17,991.16
2016,03,06,08,18,991.16
2016,03,06,08,19,991.16
2016,03,06,08,20,991.16
2016,03,06,08,21,991.16
2016,03,06,08,22,991.16
2016,03,06,08,23,991.16
2016,03,06,08,24,991.16
2016,03,06,08,25,991.16
2016,03,06,08,26,991.16
2016,03,06,08,27,991.16
2016,03,06,08,28,991.16
2016,03,06,08,29,991.16
2016,03,06,08,30,991.53
2016,03,06,08,31,991.53
2016,03,06,08,32,991.53
2016,03,06,08,33,991.53
2016,03,06,08,34,991.53
2016,03,06,08,35,991.53
2016,03,06,08,36,991.53
2016,03,06,08,37,991.53
2016,03,06,08,38,991.53
2016,03,06,08,39,991.53
2016,03,06,08,40,991.53
2016,03,06,08,41,991.53
2016,03,06,08,42,991.53
2016,03,06,08,43,991.53
2016,03,06,08,44,991.53
2016,03,06,08,45,992.08
2016,03,06,08,46,992.08
2016,03,06,08,47,992.08
2016,03,06,08,48,992.08
2016,03,06,08,49,992.08
2016,03,06,08,50,992.08
2016,03,06,08,51,992.08
2016,03,06,08,52,992.08
2016,03,06,08,53,992.08
2016,03,06,08,54,992.08
2016,03,06,08,55,992.08
2016,03,06,08,56,992.08
2016,03,06,08,57,992.08
2016,03,06,08,58,992.08
2016,03,06,08,59,992.08
2016,03,06,09,00,992.28
2016,03,06,09,01,992.28
2016,03,06,09,02,992.28
2016,03,06,09,03,992.28
2016,03,06,09,04,992.28
2016,03,06,09,05,992.28
2016,03,06,09,06,992.28
2016,03,06,09,07,992.28
2016,03,06,09,08,992.28
2016,03,06,09,09,992.28
2016,03,06,09,10,992.28
2016,03,06,09,11,992.28
2016,03,06,09,12,992.28
2016,03,06,09,13,992.28
2016,03,06,09,14,992.28
2016,03,06,09,15,992.79
2016,03,06,09,16,992.82
2016,03,06,09,17,992.82
2016,03,06,09,18,992.82
2016,03,06,09,19,992.82
2016,03,06,09,20,992.82
2016,03,06,09,21,992.82
2016,03,06,09,22,992.82
2016,03,06,09,23,992.82
2016,03,06,09,24,992.82
2016,03,06,09,25,992.82
2016,03,06,09,26,992.82
2016,03,06,09,27,992.82
2016,03,06,09,28,992.82
2016,03,06,09,29,992.82
2016,03,06,09,30,993.28
2016,03,06,09,31,993.30
2016,03,06,09,32,993.30
2016,03,06,09,33,993.30
2016,03,06,09,34,993.30
2016,03,06,09,35,993.30
2016,03,06,09,36,993.30
2016,03,06,09,37,993.30
2016,03,06,09,38,993.30
2016,03,06,09,39,993.30
2016,03,06,09,40,993.30
2016,03,06,09,41,993.30
2016,03,06,09,42,993.30
2016,03,06,09,43,993.30
2016,03,06,09,44,993.30
2016,03,06,09,45,992.91
2016,03,06,09,46,992.89
2016,03,06,09,47,992.89
2016,03,06,09,48,992.89
2016,03,06,09,49,992.89
2016,03,06,09,50,992.89
2016,03,06,09,51,992.89
2016,03,06,09,52,992.89
2016,03,06,09,53,992.89
2016,03,06,09,54,992.89
2016,03,06,09,55,992.89
2016,03,06,09,56,992.89
2016,03,06,09,57,992.89
2016,03,06,09,58,992.89
2016,03,06,09,59,992.89
2016,03,06,10,00,992.73
2016,03,06,10,01,992.72
2016,03,06,10,02,992.72
2016,03,06,10,03,992.72
2016,03,06,10,04,992.72
2016,03,06,10,05,992.72
2016,03,06,10,06,992.72
2016,03,06,10,07,992.72
2016,03,06,10,08,992.72
2016,03,06,10,09,992.72
2016,03,06,10,10,992.72
2016,03,06,10,11,992.72
2016,03,06,10,12,992.72
2016,03,06,10,13,992.72
2016,03,06,10,14,992.72
2016,03,06,10,15,992.86
2016,03,06,10,16,992.86
2016,03,06,10,17,992.86
2016,03,06,10,18,992.86
2016,03,06,10,19,992.86
2016,03,06,10,20,992.86
2016,03,06,10,21,992.86
2016,03,06,10,22,992.86
2016,03,06,10,23,992.86
2016,03,06,10,24,992.86
2016,03,06,10,25,992.86
2016,03,06,10,26,992.86
2016,03,06,10,27,992.86
2016,03,06,10,28,992.86
2016,03,06,10,29,992.86
2016,03,06,10,30,993.03
2016,03,06,10,31,993.03
2016,03,06,10,32,993.03
2016,03,06,10,33,993.03
2016,03,06,10,34,993.03
2016,03,06,10,35,993.03
2016,03,06,10,36,993.03
2016,03,06,10,37,993.03
2016,03,06,10,38,993.03
2016,03,06,10,39,993.03
2016,03,06,10,40,993.03
2016,03,06,10,41,993.03
2016,03,06,10,42,993.03
2016,03,06,10,43,993.03
2016,03,06,10,44,993.03
2016,03,06,10,45,993.15
2016,03,06,10,46,993.16
2016,03,06,10,47,993.16
2016,03,06,10,48,993.16
2016,03,06,10,49,993.16
2016,03,06,10,50,993.16
2016,03,06,10,51,993.16
2016,03,06,10,52,993.16
2016,03,06,10,53,993.16
2016,03,06,10,54,993.16
2016,03,06,10,55,993.16
2016,03,06,10,56,993.16
2016,03,06,10,57,993.16
2016,03,06,10,58,993.16
2016,03,06,10,59,993.16
2016,03,06,11,00,993.42
2016,03,06,11,01,993.43
2016,03,06,11,02,993.43
2016,03,06,11,03,993.43
2016,03,06,11,04,993.43
2016,03,06,11,05,993.43
2016,03,06,11,06,993.43
2016,03,06,11,07,993.43
2016,03,06,11,08,993.43
2016,03,06,11,09,993.43
2016,03,06,11,10,993.43
2016,03,06,11,11,993.43
2016,03,06,11,12,993.43
2016,03,06,11,13,993.43
2016,03,06,11,14,993.43
2016,03,06,11,15,993.69
2016,03,06,11,16,993.70
2016,03,06,11,17,993.70
2016,03,06,11,18,993.70
2016,03,06,11,19,993.70
2016,03,06,11,20,993.70
2016,03,06,11,21,993.70
2016,03,06,11,22,993.70
2016,03,06,11,23,993.70
2016,03,06,11,24,993.70
2016,03,06,11,25,993.70
2016,03,06,11,26,993.70
2016,03,06,11,27,993.70
2016,03,06,11,28,993.70
2016,03,06,11,29,993.70
2016,03,06,11,30,993.67
2016,03,06,11,31,993.67
2016,03,06,11,32,993.67
2016,03,06,11,33,993.67
2016,03,06,11,34,993.67
2016,03,06,11,35,993.67
2016,03,06,11,36,993.67
2016,03,06,11,37,993.67
2016,03,06,11,38,993.67
2016,03,06,11,39,993.67
2016,03,06,11,40,993.67
2016,03,06,11,41,993.67
2016,03,06,11,42,993.67
2016,03,06,11,43,993.67
2016,03,06,11,44,993.67
2016,03,06,11,45,993.70
2016,03,06,11,46,993.70
2016,03,06,11,47,993.70
2016,03,06,11,48,993.70
2016,03,06,11,49,993.70
2016,03,06,11,50,993.70
2016,03,06,11,51,993.70
2016,03,06,11,52,993.70
2016,03,06,11,53,993.70
2016,03,06,11,54,993.70
2016,03,06,11,55,993.70
2016,03,06,11,56,993.70
2016,03,06,11,57,993.70
2016,03,06,11,58,993.70
2016,03,06,11,59,993.70
2016,03,06,12,00,993.96
2016,03,06,12,01,993.97
2016,03,06,12,02,993.97
2016,03,06,12,03,993.97
2016,03,06,12,04,993.97
2016,03,06,12,05,993.97
2016,03,06,12,06,993.97
2016,03,06,12,07,993.97
2016,03,06,12,08,993.97
2016,03,06,12,09,993.97
2016,03,06,12,10,993.97
2016,03,06,12,11,993.97
2016,03,06,12,12,993.97
2016,03,06,12,13,993.97
2016,03,06,12,14,993.97
2016,03,06,12,15,994.18
2016,03,06,12,16,994.18
2016,03,06,12,17,994.18
2016,03,06,12,18,994.18
2016,03,06,12,19,994.18
2016,03,06,12,20,994.18
2016,03,06,12,21,994.18
2016,03,06,12,22,994.18
2016,03,06,12,23,994.18
2016,03,06,12,24,994.18
2016,03,06,12,25,994.18
2016,03,06,12,26,994.18
2016,03,06,12,27,994.18
2016,03,06,12,28,994.18
2016,03,06,12,29,994.18
2016,03,06,12,30,994.63
2016,03,06,12,31,994.65
2016,03,06,12,32,994.65
2016,03,06,12,33,994.65
2016,03,06,12,34,994.65
2016,03,06,12,35,994.65
2016,03,06,12,36,994.65
2016,03,06,12,37,994.65
2016,03,06,12,38,994.65
2016,03,06,12,39,994.65
2016,03,06,12,40,994.65
2016,03,06,12,41,994.65
2016,03,06,12,42,994.65
2016,03,06,12,43,994.65
2016,03,06,12,44,994.65
2016,03,06,12,45,994.68
2016,03,06,12,46,994.68
2016,03,06,12,47,994.68
2016,03,06,12,48,994.68
2016,03,06,12,49,994.68
2016,03,06,12,50,994.68
2016,03,06,12,51,994.68
2016,03,06,12,52,994.68
2016,03,06,12,53,994.68
2016,03,06,12,54,994.68
2016,03,06,12,55,994.68
2016,03,06,12,56,994.68
2016,03,06,12,57,994.68
2016,03,06,12,58,994.68
2016,03,06,12,59,994.68
2016,03,06,13,00,994.78
2016,03,06,13,01,994.79
2016,03,06,13,02,994.79
2016,03,06,13,03,994.79
2016,03,06,13,04,994.79
2016,03,06,13,05,994.79
2016,03,06,13,06,994.79
2016,03,06,13,07,994.79
2016,03,06,13,08,994.79
2016,03,06,13,09,994.79
2016,03,06,13,10,994.79
2016,03,06,13,11,994.79
2016,03,06,13,12,994.79
2016,03,06,13,13,994.79
2016,03,06,13,14,994.79
2016,03,06,13,15,994.68
2016,03,06,13,16,994.68
2016,03,06,13,17,994.68
2016,03,06,13,18,994.68
2016,03,06,13,19,994.68
2016,03,06,13,20,994.68
2016,03,06,13,21,994.68
2016,03,06,13,22,994.68
2016,03,06,13,23,994.68
2016,03,06,13,24,994.68
2016,03,06,13,25,994.68
2016,03,06,13,26,994.68
2016,03,06,13,27,994.68
2016,03,06,13,28,994.68
2016,03,06,13,29,994.68
2016,03,06,13,30,994.72
2016,03,06,13,31,994.72
2016,03,06,13,32,994.72
2016,03,06,13,33,994.72
2016,03,06,13,34,994.72
2016,03,06,13,35,994.72
2016,03,06,13,36,994.72
2016,03,06,13,37,994.72
2016,03,06,13,38,994.72
2016,03,06,13,39,994.72
2016,03,06,13,40,994.72
2016,03,06,13,41,994.72
2016,03,06,13,42,994.72
2016,03,06,13,43,994.72
2016,03,06,13,44,994.72
2016,03,06,13,45,994.79
2016,03,06,13,46,994.79
2016,03,06,13,47,994.79
2016,03,06,13,48,994.79
2016,03,06,13,49,994.79
2016,03,06,13,50,994.79
2016,03,06,13,51,994.79
2016,03,06,13,52,994.79
2016,03,06,13,53,994.79
2016,03,06,13,54,994.79
2016,03,06,13,55,994.79
2016,03,06,13,56,994.79
2016,03,06,13,57,994.79
2016,03,06,13,58,994.79
2016,03,06,13,59,994.79
2016,03,06,14,00,994.82
2016,03,06,14,01,994.82
2016,03,06,14,02,994.82
2016,03,06,14,03,994.82
2016,03,06,14,04,994.82
2016,03,06,14,05,994.82
2016,03,06,14,06,994.82
2016,03,06,14,07,994.82
2016,03,06,14,08,994.82
2016,03,06,14,09,994.82
2016,03,06,14,10,994.82
2016,03,06,14,11,994.82
2016,03,06,14,12,994.82
2016,03,06,14,13,994.82
2016,03,06,14,14,994.82
2016,03,06,14,15,995.17
2016,03,06,14,16,995.19
2016,03,06,14,17,995.19
2016,03,06,14,18,995.19
2016,03,06,14,19,995.19
2016,03,06,14,20,995.19
2016,03,06,14,21,995.19
2016,03,06,14,22,995.19
2016,03,06,14,23,995.19
2016,03,06,14,24,995.19
2016,03,06,14,25,995.19
2016,03,06,14,26,995.19
2016,03,06,14,27,995.19
2016,03,06,14,28,995.19
2016,03,06,14,29,995.19
2016,03,06,14,30,995.70
2016,03,06,14,31,995.70
2016,03,06,14,32,995.70
2016,03,06,14,33,995.70
2016,03,06,14,34,995.70
2016,03,06,14,35,995.70
2016,03,06,14,36,995.70
2016,03,06,14,37,995.70
2016,03,06,14,38,995.70
2016,03,06,14,39,995.70
2016,03,06,14,40,995.70
2016,03,06,14,41,995.70
2016,03,06,14,42,995.70
2016,03,06,14,43,995.70
2016,03,06,14,44,995.70
2016,03,06,14,45,995.73
2016,03,06,14,46,995.73
2016,03,06,14,47,995.73
2016,03,06,14,48,995.73
2016,03,06,14,49,995.73
2016,03,06,14,50,995.73
2016,03,06,14,51,995.73
2016,03,06,14,52,995.73
2016,03,06,14,53,995.73
2016,03,06,14,54,995.73
2016,03,06,14,55,995.73
2016,03,06,14,56,995.73
2016,03,06,14,57,995.73
2016,03,06,14,58,995.73
2016,03,06,14,59,995.73
2016,03,06,15,00,995.77
2016,03,06,15,01,995.77
2016,03,06,15,02,995.77
2016,03,06,15,03,995.77
2016,03,06,15,04,995.77
2016,03,06,15,05,995.77
2016,03,06,15,06,995.77
2016,03,06,15,07,995.77
2016,03,06,15,08,995.77
2016,03,06,15,09,995.77
2016,03,06,15,10,995.77
2016,03,06,15,11,995.77
2016,03,06,15,12,995.77
2016,03,06,15,13,995.77
2016,03,06,15,14,995.77
2016,03,06,15,15,995.80
2016,03,06,15,16,995.80
2016,03,06,15,17,995.80
2016,03,06,15,18,995.80
2016,03,06,15,19,995.80
2016,03,06,15,20,995.80
2016,03,06,15,21,995.80
2016,03,06,15,22,995.80
2016,03,06,15,23,995.80
2016,03,06,15,24,995.80
2016,03,06,15,25,995.80
2016,03,06,15,26,995.80
2016,03,06,15,27,995.80
2016,03,06,15,28,995.80
2016,03,06,15,29,995.80
2016,03,06,15,30,995.73
2016,03,06,15,31,995.73
2016,03,06,15,32,995.73
2016,03,06,15,33,995.73
2016,03,06,15,34,995.73
2016,03,06,15,35,995.73
2016,03,06,15,36,995.73
2016,03,06,15,37,995.73
2016,03,06,15,38,995.73
2016,03,06,15,39,995.73
2016,03,06,15,40,995.73
2016,03,06,15,41,995.73
2016,03,06,15,42,995.73
2016,03,06,15,43,995.73
2016,03,06,15,44,995.73
2016,03,06,15,45,995.89
2016,03,06,15,46,995.90
2016,03,06,15,47,995.90
2016,03,06,15,48,995.90
2016,03,06,15,49,995.90
2016,03,06,15,50,995.90
2016,03,06,15,51,995.90
2016,03,06,15,52,995.90
2016,03,06,15,53,995.90
2016,03,06,15,54,995.90
2016,03,06,15,55,995.90
2016,03,06,15,56,995.90
2016,03,06,15,57,995.90
2016,03,06,15,58,995.90
2016,03,06,15,59,995.90
2016,03,06,16,00,996.13
2016,03,06,16,01,996.14
2016,03,06,16,02,996.14
2016,03,06,16,03,996.14
2016,03,06,16,04,996.14
2016,03,06,16,05,996.14
2016,03,06,16,06,996.14
2016,03,06,16,07,996.14
2016,03,06,16,08,996.14
2016,03,06,16,09,996.14
2016,03,06,16,10,996.14
2016,03,06,16,11,996.14
2016,03,06,16,12,996.14
2016,03,06,16,13,996.14
2016,03,06,16,14,996.14
2016,03,06,16,15,996.14
2016,03,06,16,16,996.14
2016,03,06,16,17,996.14
2016,03,06,16,18,996.14
2016,03,06,16,19,996.14
2016,03,06,16,20,996.14
2016,03,06,16,21,996.14
2016,03,06,16,22,996.14
2016,03,06,16,23,996.14
2016,03,06,16,24,996.14
2016,03,06,16,25,996.14
2016,03,06,16,26,996.14
2016,03,06,16,27,996.14
2016,03,06,16,28,996.14
2016,03,06,16,29,996.14
2016,03,06,16,30,996.14
2016,03,06,16,31,996.14
2016,03,06,16,32,996.14
2016,03,06,16,33,996.14
2016,03,06,16,34,996.14
2016,03,06,16,35,996.14
2016,03,06,16,36,996.14